モンターニ彗星

C/2000 A1 ( Montani )

English version
Home page
Updated on July 29, 2002

---------------------------------------------------------------------

・ プロフィール

発見日 2000年1月12日
発見光度 18.9等
発見者 J. Montani (Lunar and Planetary Laboratory)

・ 軌道要素

Epoch 2000 June 25.0 TT = JDT 2451720.5
T 2000 July 13.1567 TT                                  MPCN
q   9.743093             (2000.0)            P               Q
z  -0.000395       Peri.   14.2668      -0.5685630      -0.7266853
 +/-0.000003       Node   111.8356      +0.7081736      -0.6708574
e   1.003847       Incl.   24.5427      +0.4186004      +0.1479149
From 126 observations 2000 Jan. 4-2002 Feb. 15, mean residual 0".5.

・ 星図

・ 光度変化

        m1 = 3.8 + 5 logΔ + 10.0 log r

---------------------------------------------------------------------

軌道要素はMPCのEphemerides and Orbital Elementsに掲載されたものです。
星図は StellaNavigator Ver.2.0 for Windows (アストロアーツ 編著 / アスキー出版局刊) で作成したものです。
光度グラフはComet for Windowsで作成したものです。

---------------------------------------------------------------------

Copyright(C) Seiichi Yoshida (comet@aerith.net). All rights reserved.